Wind_Speed
7 7 7 8 8 8 8 8 7 7 7 8 8 8 8 9 9 9 9 9 9 8 9 9 9 9 9 9 10 9 9 10 11 11 12 11 11 11 12 12 11 11 11
7 7 7 8 9 9 9 9 9 9 8 9 9 9 9 9 10 10 10 10 10 9 9 10 9 9 9 9 9 9 9 10 10 11 11 11 11 11 11 11 11 12 12
8 8 9 9 10 10 11 10 10 10 10 10 10 10 10 11 11 11 11 10 10 10 10 10 10 9 9 9 9 9 9 9 9 10 11 11 12 12 12 12 12 12 13
9 10 10 10 11 11 11 11 11 12 12 12 12 11 12 12 12 12 11 11 11 10 11 11 10 10 10 10 10 9 9 10 10 10 11 11 12 11 12 12 12 13 13
10 11 12 12 12 12 12 13 12 13 13 13 13 13 13 13 13 13 13 12 12 12 12 11 11 11 11 11 11 11 10 11 11 11 11 12 12 12 13 12 13 14 14
12 12 13 13 13 13 14 14 14 14 14 15 15 14 14 14 14 13 14 13 13 13 13 13 13 13 12 12 13 12 12 12 12 12 12 12 12 13 13 13 14 14 14
13 14 14 15 15 15 15 15 15 16 16 16 16 16 16 15 14 14 14 14 14 14 14 14 14 14 14 14 14 13 14 14 13 13 13 13 14 14 13 14 14 14 15
15 16 16 16 16 17 17 17 17 17 17 17 17 17 16 16 16 16 16 16 16 16 16 15 15 15 15 15 15 15 15 15 15 14 15 15 15 15 15 14 15 15 15
17 17 18 17 18 17 17 17 18 19 18 17 17 17 17 17 17 17 17 16 16 16 16 17 17 16 16 17 17 16 16 16 16 16 16 16 16 16 16 16 15 16 15
19 19 19 19 19 19 19 19 19 19 19 19 18 17 17 17 17 17 17 17 17 17 18 18 17 17 17 17 17 17 17 17 17 17 17 17 17 17 17 17 17 17 16
20 20 20 20 20 20 20 20 20 20 20 20 20 19 18 18 18 18 18 18 18 18 18 18 18 18 18 17 17 17 17 18 17 17 17 17 17 17 18 18 18 18 18
20 20 21 21 21 21 21 21 21 21 21 21 20 20 19 19 19 19 19 19 19 18 18 18 19 19 19 19 18 18 19 19 19 18 18 18 18 18 18 18 18 19 19
20 20 21 21 21 21 21 21 21 21 21 21 21 20 20 20 20 20 20 19 19 19 19 19 19 19 19 20 20 20 19 19 19 19 19 19 20 19 19 20 20 20 20
20 20 21 21 22 22 22 22 21 21 21 21 21 21 21 20 20 20 20 19 19 19 18 18 18 18 19 19 19 20 20 19 19 20 20 20 20 20 20 20 20 21 21
21 22 22 22 22 22 22 22 21 21 21 22 22 22 21 20 20 21 20 19 19 19 18 19 19 19 19 19 19 19 20 20 20 19 19 20 21 21 21 21 21 21 21
22 22 23 23 23 23 23 22 22 21 21 21 22 21 21 21 21 21 20 19 19 19 19 19 19 19 19 19 20 20 20 20 20 20 19 19 19 20 21 22 22 22 22
22 22 22 22 22 23 22 22 22 22 22 22 22 22 22 22 22 21 20 20 20 20 20 20 20 19 19 19 20 20 20 20 20 21 21 22 20 20 21 22 22 23 23
22 22 22 22 22 22 23 23 23 23 23 23 22 22 22 22 22 22 21 20 20 21 21 21 20 20 20 20 20 21 20 20 20 20 21 22 22 22 21 22 22 23 24
23 23 22 22 22 22 23 24 24 24 23 23 23 24 23 22 22 22 22 22 21 21 21 21 21 21 21 21 21 22 22 21 21 21 21 21 22 23 22 22 22 23 23
23 23 23 23 23 23 23 23 23 24 24 24 24 24 24 23 22 22 22 22 22 22 22 22 22 22 22 22 22 22 22 21 22 22 22 22 23 23 24 24 24 24 25
24 24 24 25 25 25 24 24 24 25 25 25 25 25 25 24 23 23 23 23 23 23 24 23 23 23 23 23 23 23 23 23 23 23 24 24 24 24 25 25 25 25 26
24 25 25 25 25 25 25 25 25 26 25 26 26 25 24 24 24 24 24 24 24 24 24 24 24 24 25 25 24 24 24 24 24 24 24 25 25 25 25 26 27 28 28
25 25 25 25 25 26 26 26 26 26 25 25 25 25 25 25 25 25 26 26 26 26 25 25 25 25 26 25 25 26 26 25 26 26 26 26 26 27 27 28 29 30 30
26 26 27 27 27 27 27 26 25 24 24 24 24 24 24 24 25 26 26 27 27 27 27 27 26 26 26 26 26 26 27 27 27 27 27 28 28 29 29 29 30 30 31
27 27 27 28 27 27 26 26 25 24 24 24 24 24 24 25 25 26 26 27 27 27 28 28 27 27 27 27 27 28 28 28 28 28 29 29 29 30 30 30 31 31 31
28 28 27 27 27 27 26 26 25 25 25 25 25 25 25 25 26 26 27 27 28 28 27 27 28 28 28 28 28 28 29 29 29 30 30 31 31 32 32 32 31 32 32
Wind_Direction
294 293 295 297 300 303 303 301 300 301 302 305 306 305 304 305 305 304 305 305 304 302 298 297 297 293 289 281 272 270 266 262 260 256 255 255 252 250 249 246 245 246 248
294 297 297 298 299 301 300 298 296 297 298 301 304 303 301 300 299 299 299 299 300 300 299 297 292 289 289 286 277 276 275 271 265 258 253 252 251 249 247 246 248 249 248
291 294 297 298 297 298 297 296 293 294 295 297 298 298 297 298 297 295 295 296 295 295 294 294 291 289 286 282 279 278 275 269 267 263 257 252 247 246 250 251 252 253 251
288 291 294 297 296 295 294 293 291 292 293 295 295 295 296 298 297 294 294 293 291 291 292 291 288 287 285 280 279 277 273 269 267 262 258 254 250 248 252 253 254 254 253
285 288 289 290 292 292 291 289 289 289 290 292 292 293 294 296 296 294 293 291 289 288 287 287 283 282 283 279 278 278 274 272 269 265 258 253 251 252 252 250 252 253 253
285 289 290 288 286 288 289 289 287 287 287 288 290 291 292 292 293 293 291 289 288 287 285 285 282 279 279 278 278 277 273 272 269 264 259 253 252 253 252 251 251 251 251
282 285 287 288 287 286 287 288 287 285 285 286 286 287 289 289 289 290 289 289 288 286 284 284 283 280 277 276 276 276 274 272 269 263 259 255 253 252 252 252 251 251 251
279 280 283 285 286 285 285 285 285 285 284 284 284 284 285 286 285 285 286 287 286 284 282 282 282 280 277 277 275 274 272 270 268 263 259 256 254 253 253 253 251 251 250
278 279 281 282 283 284 284 285 286 286 284 284 284 283 282 282 283 283 284 284 284 283 280 278 276 276 274 274 274 274 272 271 268 262 259 256 255 253 254 254 253 252 251
280 282 282 282 282 283 285 285 285 285 285 285 282 282 281 280 280 282 283 283 282 281 280 276 274 273 274 272 271 271 270 269 266 262 259 258 257 257 255 254 254 253 253
283 283 283 284 282 282 284 284 283 282 282 282 280 279 280 280 281 281 281 281 282 281 280 277 274 272 273 271 269 269 270 267 264 262 261 260 257 258 258 256 255 255 255
283 283 283 282 282 282 283 282 281 280 280 280 279 278 277 279 281 281 282 281 281 280 279 277 274 272 270 269 268 269 269 267 264 262 261 260 259 258 259 258 256 255 256
282 282 283 283 282 282 282 281 278 278 278 278 278 277 277 277 279 281 282 281 280 280 279 276 275 273 271 270 269 269 269 266 263 260 259 259 259 258 258 257 256 256 257
283 282 282 282 282 282 282 281 278 277 276 276 277 276 276 275 277 278 278 278 277 279 279 277 275 274 273 272 272 270 268 266 263 261 260 259 259 258 257 256 256 256 257
283 281 282 282 282 281 281 280 278 278 276 276 276 275 274 274 275 276 275 275 276 275 277 278 276 276 275 273 272 272 269 267 265 264 262 260 259 258 256 255 255 255 256
281 281 282 282 281 281 279 277 277 278 277 276 275 274 273 272 273 275 273 273 273 273 274 276 276 276 276 274 273 272 269 268 267 267 265 262 261 260 257 256 255 255 255
282 282 283 282 282 282 279 276 275 276 277 276 276 276 275 274 272 274 271 271 272 273 275 277 276 276 275 274 273 272 270 268 269 269 267 264 262 261 259 258 257 257 257
284 283 283 282 282 282 280 279 276 275 275 275 275 276 276 275 273 270 270 270 271 272 273 275 276 276 276 274 271 272 271 269 269 270 269 267 264 262 262 259 258 257 257
283 282 282 282 282 281 282 279 277 275 274 274 275 275 275 274 272 270 269 270 271 271 272 275 273 273 273 273 272 271 270 270 268 268 268 268 266 263 261 259 259 259 258
282 282 281 282 282 280 281 279 278 276 275 273 274 274 274 272 271 270 269 269 269 270 271 272 272 272 271 272 271 271 271 271 269 268 269 268 266 266 265 264 264 263 260
281 281 281 281 281 281 280 279 278 277 276 274 274 273 271 270 269 268 269 269 269 270 271 272 273 272 271 271 271 270 271 272 270 270 270 269 268 267 267 266 266 265 263
282 283 282 280 280 282 282 281 279 277 276 275 274 271 269 269 269 267 268 268 269 270 270 271 272 272 271 270 270 272 274 274 272 272 271 270 269 269 269 268 266 266 265
281 282 281 280 280 281 282 283 281 278 276 275 274 272 270 270 269 268 267 267 268 268 269 270 271 272 271 271 271 273 274 274 274 272 271 271 271 270 270 270 269 268 268
279 279 279 279 279 280 281 281 280 278 275 275 275 273 271 270 270 270 269 268 267 267 268 269 270 271 272 272 273 272 272 274 274 272 271 272 272 272 271 271 270 269 269
280 279 279 279 279 279 279 277 276 275 275 274 274 272 272 272 272 271 270 269 268 268 268 268 269 269 271 271 272 273 273 274 273 273 272 271 271 273 273 272 272 270 270
280 280 280 279 279 279 279 278 277 277 275 274 274 273 272 272 273 272 272 270 269 269 269 270 270 269 271 272 273 273 273 273 273 274 274 273 272 274 274 273 272 271 270
Height
5846 5845 5844 5844 5843 5842 5842 5841 5841 5840 5839 5838 5837 5836 5835 5834 5833 5832 5831 5830 5829 5828 5828 5827 5826 5825 5824 5823 5823 5823 5823 5823 5823 5823 5823 5823 5824 5825 5825 5825 5825 5826 5826
5844 5843 5842 5842 5841 5840 5839 5838 5838 5837 5837 5836 5835 5834 5833 5832 5831 5830 5829 5828 5827 5826 5825 5824 5823 5822 5822 5821 5821 5821 5820 5820 5820 5821 5821 5821 5822 5822 5822 5823 5823 5823 5823
5841 5840 5840 5839 5838 5837 5836 5836 5835 5834 5834 5833 5832 5831 5830 5829 5828 5827 5826 5825 5824 5823 5822 5821 5820 5820 5819 5819 5818 5818 5818 5818 5818 5818 5818 5818 5819 5819 5820 5820 5820 5820 5820
5838 5838 5837 5836 5835 5834 5833 5832 5832 5831 5830 5830 5829 5828 5827 5826 5825 5824 5823 5823 5822 5821 5820 5819 5818 5817 5817 5816 5816 5816 5815 5815 5815 5815 5815 5816 5816 5816 5817 5817 5817 5817 5817
5835 5835 5834 5833 5832 5831 5830 5829 5829 5828 5827 5826 5826 5825 5824 5823 5822 5821 5820 5819 5818 5818 5817 5816 5815 5814 5814 5814 5813 5813 5813 5812 5812 5812 5812 5812 5813 5813 5814 5814 5814 5814 5814
5832 5831 5830 5830 5829 5828 5827 5826 5825 5824 5823 5823 5822 5821 5820 5819 5818 5817 5816 5816 5815 5814 5813 5813 5812 5811 5811 5810 5810 5810 5809 5809 5809 5809 5809 5809 5809 5810 5810 5810 5811 5811 5811
5828 5827 5826 5825 5824 5823 5823 5822 5821 5820 5819 5818 5818 5817 5816 5815 5814 5813 5812 5812 5811 5810 5810 5809 5808 5808 5807 5807 5806 5806 5806 5805 5805 5805 5805 5805 5805 5806 5806 5806 5807 5807 5807
5823 5822 5821 5820 5820 5819 5818 5817 5816 5815 5815 5814 5813 5812 5812 5811 5810 5809 5808 5807 5807 5806 5805 5805 5804 5803 5803 5803 5802 5802 5802 5801 5801 5801 5801 5801 5801 5802 5802 5802 5803 5803 5804
5818 5817 5816 5816 5815 5814 5813 5812 5811 5810 5809 5809 5808 5807 5807 5806 5805 5804 5803 5803 5802 5801 5800 5800 5799 5799 5799 5798 5798 5798 5797 5797 5797 5796 5796 5796 5797 5797 5797 5798 5799 5799 5800
5813 5812 5811 5810 5810 5809 5808 5807 5806 5805 5804 5803 5803 5802 5801 5801 5800 5799 5798 5797 5797 5796 5795 5794 5794 5794 5793 5793 5793 5793 5792 5792 5792 5792 5792 5792 5792 5792 5793 5793 5794 5794 5795
5807 5806 5805 5804 5804 5803 5802 5801 5800 5800 5799 5798 5797 5796 5796 5795 5794 5794 5793 5792 5791 5790 5790 5789 5789 5788 5788 5788 5787 5787 5787 5787 5787 5787 5787 5787 5787 5787 5788 5788 5789 5789 5790
5801 5800 5799 5798 5798 5797 5796 5795 5795 5794 5793 5792 5791 5791 5790 5789 5789 5788 5786 5786 5785 5784 5784 5783 5783 5782 5782 5782 5782 5782 5781 5781 5781 5781 5781 5781 5782 5782 5782 5783 5783 5784 5785
5795 5794 5793 5792 5791 5791 5790 5789 5788 5787 5787 5786 5785 5784 5784 5783 5782 5781 5780 5780 5779 5778 5778 5777 5777 5776 5776 5776 5776 5776 5775 5775 5775 5775 5775 5775 5776 5776 5777 5777 5778 5778 5779
5789 5788 5787 5786 5785 5784 5783 5782 5782 5781 5780 5779 5779 5778 5777 5777 5776 5775 5774 5774 5773 5772 5772 5771 5771 5770 5770 5770 5769 5769 5769 5768 5768 5769 5769 5769 5770 5770 5770 5771 5772 5772 5773
5783 5782 5781 5780 5779 5778 5777 5776 5775 5774 5773 5773 5772 5771 5771 5770 5770 5769 5768 5768 5767 5767 5766 5765 5765 5764 5764 5764 5763 5763 5762 5762 5762 5762 5762 5763 5763 5764 5764 5765 5766 5766 5767
5777 5776 5774 5773 5772 5771 5770 5769 5768 5767 5767 5766 5765 5765 5764 5764 5763 5763 5762 5762 5761 5760 5760 5759 5759 5758 5757 5757 5757 5757 5756 5756 5756 5756 5756 5756 5756 5757 5758 5758 5759 5760 5761
5770 5768 5767 5766 5765 5764 5763 5762 5761 5761 5760 5759 5758 5758 5757 5757 5756 5756 5756 5755 5755 5754 5754 5753 5752 5752 5751 5751 5750 5750 5750 5750 5749 5749 5749 5749 5750 5750 5751 5752 5753 5753 5754
5762 5761 5760 5759 5758 5757 5756 5755 5754 5754 5753 5752 5752 5751 5750 5750 5749 5749 5749 5749 5748 5748 5747 5747 5746 5746 5745 5745 5744 5744 5744 5743 5743 5743 5743 5743 5743 5744 5744 5745 5746 5746 5747
5756 5754 5754 5753 5752 5751 5749 5748 5747 5746 5746 5745 5744 5744 5743 5743 5742 5742 5742 5742 5742 5741 5741 5740 5740 5739 5739 5738 5738 5738 5738 5737 5737 5737 5736 5736 5737 5737 5738 5738 5739 5739 5740
5749 5747 5746 5745 5745 5743 5742 5741 5740 5739 5738 5738 5737 5736 5736 5735 5735 5735 5735 5735 5735 5734 5734 5733 5733 5733 5732 5732 5731 5731 5731 5731 5731 5730 5730 5730 5730 5730 5730 5731 5731 5732 5732
5741 5740 5739 5738 5737 5736 5735 5733 5733 5732 5731 5730 5729 5729 5728 5728 5728 5727 5727 5727 5727 5727 5727 5726 5726 5726 5725 5725 5724 5724 5724 5724 5724 5723 5723 5723 5723 5723 5723 5723 5724 5724 5724
5734 5732 5731 5730 5729 5728 5726 5725 5724 5723 5723 5722 5721 5721 5720 5720 5720 5720 5720 5720 5720 5720 5719 5719 5719 5718 5718 5718 5717 5717 5717 5716 5716 5716 5716 5716 5715 5715 5715 5715 5716 5715 5716
5725 5724 5723 5722 5721 5720 5718 5717 5716 5715 5715 5714 5713 5712 5712 5712 5712 5712 5712 5712 5712 5712 5711 5711 5711 5711 5710 5710 5709 5709 5709 5708 5708 5708 5708 5708 5707 5707 5707 5707 5706 5706 5706
5717 5716 5715 5714 5713 5711 5710 5709 5708 5707 5706 5706 5705 5704 5704 5703 5703 5703 5703 5703 5703 5703 5703 5703 5703 5703 5702 5701 5701 5701 5700 5700 5699 5699 5699 5699 5698 5698 5698 5697 5697 5696 5696
5708 5707 5706 5705 5704 5703 5702 5701 5700 5699 5698 5698 5697 5696 5695 5695 5695 5694 5694 5694 5694 5694 5694 5694 5694 5694 5694 5693 5693 5692 5692 5691 5691 5690 5690 5690 5689 5689 5688 5687 5687 5686 5686
5699 5698 5698 5697 5695 5694 5693 5693 5692 5691 5690 5689 5689 5688 5687 5687 5686 5686 5685 5685 5685 5685 5685 5685 5685 5685 5685 5684 5684 5683 5682 5682 5682 5681 5681 5680 5679 5678 5678 5677 5677 5676 5676